Freeport, IL

4:40 AM CST on December 09, 2019 (GMT -0600)
Albertus

Weather History for KFEP - October, 2019

Change the Weather History Date:

Saturday, October 5, 2019

  Actual Average Record
Temperature  
Mean Temperature 49 °F -  
Max Temperature 57 °F 65 °F 82 °F (2007)
Min Temperature 41 °F 40 °F 27 °F (1980)
Degree Days  
Heating Degree Days 16    
Moisture  
Dew Point 50 °F    
Average Humidity 95    
Maximum Humidity 100    
Minimum Humidity 76    
Precipitation  
Precipitation 0.35 in - - ()
Sea Level Pressure  
Sea Level Pressure 30.06 in    
Wind  
Wind Speed 7 mph (SSE)    
Max Wind Speed 21 mph    
Max Gust Speed 26 mph    
Visibility 5 miles    
Events Fog , Rain , Thunderstorm    
Averages and records for this station are not official NWS values.
T = Trace of Precipitation, MM = Missing Value Source: NWS Daily Summary

Daily Weather History Graph

Daily Weather History Graph

Search for Another Location

Airport or City:

Astronomy

Oct. 05, 2019 Rise Set
Actual Time 6:59 AM CDT 6:33 PM CDT
Civil Twilight 6:31 AM CDT 7:01 PM CDT
Nautical Twilight 5:59 AM CDT 7:33 PM CDT
Astronomical Twilight 5:26 AM CDT 8:06 PM CDT
Moon 2:31 PM CDT (10/5) 11:50 PM CDT (10/5)
Length of Visible Light 12h 29m
Length of Day
11h 33m
Waxing Crescent, 50% of the Moon is Illuminated
Oct 5
Waxing Crescent
Oct 13
Full
Oct 21
Last Quarter
Oct 27
New
Nov 4
First Quarter

Hourly Weather History & Observations

Time (CDT) Temp. Windchill Dew Point Humidity Pressure Visibility Wind Dir Wind Speed Gust Speed Precip Events Conditions
12:15 AM 42.8 °F 40.1 °F 42.8 °F 100% 30.30 in 1.8 mi East 4.6 mph - N/A   Mist
12:35 AM 42.4 °F 40.7 °F 42.4 °F 100% 30.30 in 1.2 mi ESE 3.5 mph - N/A   Mist
12:55 AM 42.8 °F 40.1 °F 42.8 °F 100% 30.29 in 1.0 mi East 4.6 mph - N/A   Mostly Cloudy
1:15 AM 41.9 °F 40.0 °F 41.9 °F 100% 30.27 in 2.5 mi East 3.5 mph - N/A   Scattered Clouds
1:35 AM 42.4 °F 39.6 °F 42.4 °F 100% 30.26 in 1.2 mi ESE 4.6 mph - N/A   Mist
1:55 AM 44.2 °F 42.7 °F 44.2 °F 100% 30.26 in 1.2 mi East 3.5 mph - N/A   Mist
2:15 AM 45.0 °F - 45.0 °F 100% 30.27 in 1.8 mi Calm Calm - N/A   Mist
2:35 AM 45.5 °F 44.2 °F 45.5 °F 100% 30.27 in 1.2 mi SE 3.5 mph - N/A   Mist
2:55 AM 46.0 °F 44.8 °F 46.0 °F 100% 30.25 in 2.5 mi East 3.5 mph - N/A   Clear
3:15 AM 46.0 °F - 46.0 °F 100% 30.25 in 1.2 mi Calm Calm - N/A   Mist
3:35 AM 46.4 °F 45.2 °F 46.4 °F 100% 30.24 in 1.0 mi ESE 3.5 mph - N/A   Mist
3:55 AM 46.4 °F 45.2 °F 46.4 °F 100% 30.24 in 1.2 mi ESE 3.5 mph - N/A   Mist
4:15 AM 46.4 °F 43.5 °F 46.4 °F 100% 30.22 in 1.0 mi ESE 5.8 mph - N/A   Mist
4:35 AM 46.6 °F - 46.6 °F 100% 30.22 in 1.0 mi Calm Calm - N/A   Overcast
4:55 AM 47.3 °F - 46.4 °F 97% 30.21 in 1.0 mi SE 5.8 mph - N/A   Overcast
5:15 AM 47.3 °F - 46.2 °F 96% 30.21 in 1.0 mi SE 6.9 mph - N/A   Overcast
5:35 AM 47.3 °F - 45.9 °F 95% 30.20 in 1.0 mi SE 4.6 mph - N/A   Overcast
5:55 AM 47.5 °F - 46.2 °F 95% 30.20 in 1.0 mi SE 5.8 mph - N/A   Overcast
6:15 AM 47.5 °F - 46.4 °F 96% 30.19 in 1.0 mi SE 9.2 mph - N/A   Overcast
6:35 AM 47.5 °F - 46.6 °F 97% 30.19 in 1.0 mi SE 8.1 mph - N/A   Overcast
6:55 AM 47.7 °F - 46.8 °F 97% 30.18 in 1.0 mi SE 6.9 mph - N/A   Overcast
7:15 AM 47.8 °F - 46.6 °F 95% 30.17 in 1.2 mi SE 9.2 mph - N/A   Overcast
7:35 AM 48.2 °F - 46.8 °F 95% 30.15 in 0.8 mi SE 13.8 mph 18.4 mph N/A   Overcast
7:55 AM 48.2 °F - 46.8 °F 95% 30.14 in 0.5 mi SE 13.8 mph 19.6 mph N/A Fog Fog
8:15 AM 48.4 °F - 46.8 °F 94% 30.13 in 0.5 mi SE 11.5 mph - N/A Fog Fog
8:35 AM 49.1 °F - 46.9 °F 92% 30.11 in 0.5 mi SE 13.8 mph 18.4 mph N/A Fog Fog
8:55 AM 49.5 °F - 46.9 °F 91% 30.11 in 0.8 mi SE 12.7 mph 17.3 mph N/A   Overcast
9:15 AM 50.0 °F - 47.1 °F 90% 30.11 in 0.8 mi SSE 10.4 mph 18.4 mph N/A   Mostly Cloudy
9:35 AM 51.3 °F - 47.5 °F 87% 30.10 in 0.5 mi SE 11.5 mph 17.3 mph N/A Fog Fog
9:55 AM 54.0 °F - 48.4 °F 81% 30.09 in 1.2 mi SSE 13.8 mph 20.7 mph N/A   Haze
10:15 AM 53.6 °F - 47.7 °F 80% 30.09 in 10.0 mi SSE 13.8 mph 19.6 mph N/A   Mostly Cloudy
10:35 AM 55.0 °F - 48.2 °F 78% 30.08 in 5.0 mi SSE 11.5 mph 18.4 mph N/A   Haze
10:55 AM 55.0 °F - 47.5 °F 76% 30.08 in 5.0 mi SE 16.1 mph - N/A   Haze
11:15 AM 55.6 °F - 48.0 °F 76% 30.06 in 10.0 mi SE 10.4 mph - N/A   Overcast
11:35 AM 55.6 °F - 48.6 °F 77% 30.05 in 7.0 mi SSE 10.4 mph - N/A   Overcast
11:55 AM 56.1 °F - 48.6 °F 76% 30.06 in 7.0 mi SSE 10.4 mph - N/A   Overcast
12:15 PM 56.3 °F - 48.7 °F 76% 30.09 in 10.0 mi SSW 8.1 mph - N/A   Overcast
12:35 PM 55.4 °F - 51.3 °F 86% 30.04 in 7.0 mi SE 6.9 mph - 0.01 in Rain Light Rain
12:55 PM 57.4 °F - 52.9 °F 85% 30.01 in 5.0 mi SE 9.2 mph - 0.01 in   Haze
1:15 PM 57.4 °F - 51.4 °F 81% 29.99 in 4.0 mi SE 13.8 mph - N/A   Haze
1:35 PM 57.2 °F - 50.7 °F 79% 30.03 in 5.0 mi Calm Calm - N/A   Haze
1:55 PM 56.5 °F - 50.7 °F 81% 30.07 in 10.0 mi WNW 6.9 mph - N/A Thunderstorm Thunderstorm
2:15 PM 54.5 °F - 53.2 °F 96% 30.03 in 4.0 mi NE 5.8 mph - N/A Rain , Thunderstorm Thunderstorms and Rain
2:35 PM 53.2 °F - 53.2 °F 100% 30.02 in 2.5 mi ENE 3.5 mph - N/A   Overcast
2:55 PM 52.9 °F - 52.9 °F 100% 29.98 in 1.5 mi East 10.4 mph - N/A Rain Rain
3:15 PM 52.7 °F - 52.7 °F 100% 29.97 in 1.8 mi ESE 10.4 mph - 0.01 in Rain , Thunderstorm Rain
3:35 PM 52.7 °F - 52.7 °F 100% 29.94 in 1.5 mi ESE 9.2 mph - 0.01 in Rain Rain
3:55 PM 52.7 °F - 52.7 °F 100% 29.94 in 1.2 mi SE 11.5 mph - 0.01 in Rain Heavy Rain
4:15 PM 52.9 °F - 52.9 °F 100% 29.92 in 2.0 mi SE 13.8 mph - N/A Rain Rain
4:35 PM 53.6 °F - 53.6 °F 100% 29.93 in 3.0 mi SSE 11.5 mph - N/A   Overcast
4:55 PM 53.8 °F - 53.8 °F 100% 29.90 in 4.0 mi SE 13.8 mph 19.6 mph 0.01 in   Overcast
5:15 PM 54.5 °F - 54.5 °F 100% 29.90 in 10.0 mi South 20.7 mph 26.5 mph N/A   Mostly Cloudy
5:35 PM 54.9 °F - 54.9 °F 100% 29.89 in 10.0 mi SSE 15.0 mph 23.0 mph N/A   Overcast
5:55 PM 55.0 °F - 54.9 °F 99% 29.88 in 7.0 mi SSE 17.3 mph - 0.01 in   Overcast
6:15 PM 55.2 °F - 54.7 °F 98% 29.89 in 10.0 mi South 17.3 mph 24.2 mph 0.01 in   Overcast
6:35 PM 55.4 °F - 55.2 °F 99% 29.89 in 10.0 mi South 15.0 mph 19.6 mph 0.02 in   Overcast
6:55 PM 55.4 °F - 55.4 °F 100% 29.88 in 10.0 mi South 12.7 mph 20.7 mph 0.03 in   Overcast
7:15 PM 55.6 °F - 55.4 °F 99% 29.89 in 10.0 mi South 12.7 mph 20.7 mph 0.01 in   Overcast
7:35 PM 55.6 °F - 55.6 °F 100% 29.89 in 7.0 mi South 12.7 mph 17.3 mph 0.02 in   Overcast
7:55 PM 55.4 °F - 55.4 °F 100% 29.90 in 10.0 mi SSW 10.4 mph - 0.03 in   Overcast
8:15 PM 55.6 °F - 55.6 °F 100% 29.91 in 7.0 mi SSW 10.4 mph - 0.01 in   Overcast
8:35 PM 55.6 °F - 55.6 °F 100% 29.91 in 5.0 mi SSW 9.2 mph - 0.02 in   Overcast
8:55 PM 55.8 °F - 55.8 °F 100% 29.92 in 7.0 mi SW 9.2 mph 18.4 mph 0.04 in   Overcast
9:15 PM 55.9 °F - 55.9 °F 100% 29.93 in 10.0 mi SSW 10.4 mph - 0.02 in   Overcast
9:35 PM 56.3 °F - 56.3 °F 100% 29.94 in 10.0 mi SW 6.9 mph - 0.04 in   Overcast
9:55 PM 56.3 °F - 56.3 °F 100% 29.93 in 10.0 mi WSW 8.1 mph - 0.06 in   Overcast
10:15 PM 56.5 °F - 56.5 °F 100% 29.93 in 10.0 mi SW 9.2 mph - 0.02 in   Overcast
10:35 PM 56.3 °F - 56.3 °F 100% 29.94 in 10.0 mi WSW 9.2 mph - 0.05 in   Overcast
10:55 PM 56.1 °F - 56.1 °F 100% 29.94 in 10.0 mi WSW 10.4 mph - 0.08 in   Overcast
11:15 PM 56.5 °F - 56.5 °F 100% 29.95 in 10.0 mi WSW 11.5 mph 19.6 mph 0.02 in   Overcast
11:35 PM 55.4 °F - 53.8 °F 94% 29.94 in 10.0 mi West 9.2 mph - 0.05 in   Scattered Clouds
11:55 PM 54.5 °F - 53.8 °F 97% 29.95 in 10.0 mi West 8.1 mph - 0.07 in   Scattered Clouds